Toledo, OH

9:29 PM EDT on April 26, 2018 (GMT -0400)
Toledo Express

Weather History for KTOL - September, 2013

Change the Weather History Date:

Wednesday, September 25, 2013

  Actual Average Record
Temperature  
Mean Temperature 58 °F 60 °F  
Max Temperature 71 °F 72 °F 92 °F (2017)
Min Temperature 45 °F 49 °F 32 °F (1976)
Degree Days  
Heating Degree Days 7 6  
Month to date heating degree days 102 74  
Since 1 July heating degree days 131 88  
Cooling Degree Days 0 1  
Month to date cooling degree days 90 76  
Year to date cooling degree days 772 778  
Growing Degree Days 8 (Base 50)    
Moisture  
Dew Point 50 °F    
Average Humidity 77    
Maximum Humidity 100    
Minimum Humidity 53    
Precipitation  
Precipitation 0.00 in 0.09 in 1.21 in (1986)
Month to date precipitation 1.67 2.34  
Year to date precipitation 28.46 25.66  
Snow  
Snow 0.00 in 0.00 in - ()
Month to date snowfall 0.0 0.0  
Since 1 July snowfall 0.0 0.0  
Since 1 September snowfall 0.0 0.0  
Snow Depth 0.00 in    
Sea Level Pressure  
Sea Level Pressure 29.98 in    
Wind  
Wind Speed 5 mph (NE)    
Max Wind Speed 16 mph    
Max Gust Speed 25 mph    
Visibility 9 miles    
Events      
T = Trace of Precipitation, MM = Missing Value Source: NWS Daily Summary

Daily Weather History Graph

Daily Weather History Graph

Search for Another Location

Airport or City:

Astronomy

Sep. 25, 2013 Rise Set
Actual Time 7:26 AM EDT 7:26 PM EDT
Civil Twilight 6:58 AM EDT 7:54 PM EDT
Nautical Twilight 6:26 AM EDT 8:26 PM EDT
Astronomical Twilight 5:53 AM EDT 8:59 PM EDT
Moon 11:28 PM EDT (9/25) 1:34 PM EDT (9/25)
Length of Visible Light 12h 56m
Length of Day
12h 00m
Waning Gibbous, 64% of the Moon is Illuminated
Sep 25
Waning Gibbous
Sep 26
Last Quarter
Oct 4
New
Oct 11
First Quarter
Oct 18
Full

Hourly Weather History & Observations

Time (EDT) Temp. Dew Point Humidity Pressure Visibility Wind Dir Wind Speed Gust Speed Precip Events Conditions
12:52 AM 46.9 °F 46.0 °F 97% 29.99 in 10.0 mi Calm Calm - N/A   Clear
1:52 AM 46.0 °F 46.0 °F 100% 29.99 in 8.0 mi Calm Calm - N/A   Clear
2:52 AM 46.9 °F 45.0 °F 93% 29.98 in 10.0 mi Calm Calm - N/A   Clear
3:52 AM 46.0 °F 45.0 °F 96% 29.97 in 6.0 mi Calm Calm - N/A   Clear
4:52 AM 48.0 °F 46.9 °F 96% 29.96 in 6.0 mi Calm Calm - N/A   Clear
5:52 AM 46.9 °F 46.0 °F 97% 29.97 in 6.0 mi Calm Calm - N/A   Clear
6:52 AM 48.0 °F 46.9 °F 96% 29.97 in 7.0 mi North 3.5 mph - N/A   Clear
7:52 AM 48.9 °F 46.9 °F 93% 29.98 in 6.0 mi Calm Calm - N/A   Clear
8:52 AM 52.0 °F 48.9 °F 89% 29.99 in 8.0 mi NNE 4.6 mph - N/A   Clear
9:52 AM 57.0 °F 53.1 °F 87% 30.00 in 10.0 mi NE 3.5 mph - N/A   Clear
10:52 AM 62.1 °F 55.0 °F 78% 30.00 in 10.0 mi NE 6.9 mph - N/A   Clear
11:52 AM 66.0 °F 54.0 °F 65% 29.99 in 10.0 mi NE 8.1 mph - N/A   Partly Cloudy
12:34 PM 64.4 °F 53.6 °F 68% 29.99 in 10.0 mi NE 10.4 mph - N/A   Mostly Cloudy
12:41 PM 68.0 °F 53.6 °F 60% 29.98 in 10.0 mi ENE 11.5 mph - N/A   Mostly Cloudy
12:52 PM 68.0 °F 53.1 °F 59% 29.98 in 10.0 mi ENE 13.8 mph 17.3 mph N/A   Mostly Cloudy
1:52 PM 66.9 °F 54.0 °F 63% 29.97 in 10.0 mi NE 11.5 mph - N/A   Scattered Clouds
2:52 PM 71.1 °F 54.0 °F 55% 29.95 in 10.0 mi ENE 16.1 mph - N/A   Mostly Cloudy
3:52 PM 70.0 °F 53.1 °F 55% 29.94 in 10.0 mi ENE 13.8 mph - N/A   Partly Cloudy
4:52 PM 70.0 °F 51.1 °F 51% 29.94 in 10.0 mi ENE 12.7 mph - N/A   Clear
5:52 PM 69.1 °F 52.0 °F 54% 29.95 in 10.0 mi East 11.5 mph - N/A   Clear
6:52 PM 66.0 °F 51.1 °F 59% 29.96 in 10.0 mi ENE 10.4 mph - N/A   Clear
7:52 PM 60.1 °F 48.9 °F 67% 29.97 in 10.0 mi ENE 4.6 mph - N/A   Clear
8:52 PM 55.9 °F 51.1 °F 84% 29.97 in 10.0 mi East 3.5 mph - N/A   Clear
9:52 PM 53.1 °F 52.0 °F 96% 29.98 in 10.0 mi Calm Calm - N/A   Clear
10:52 PM 53.1 °F 51.1 °F 93% 29.98 in 10.0 mi Calm Calm - N/A   Clear
11:52 PM 52.0 °F 50.0 °F 93% 29.99 in 10.0 mi Calm Calm - N/A   Clear